Покровск

Украина / Донецкая область     48°16′49″N   37°10′32″E
темп.,
°C
ветер,
м/с
пор.,
м/с
влажн.,
%
обл.,
%
осадки,
мм/ч
давл.,
гПа
погр.,
м
20 апреля, вт
вт2000:00+11св2367100 0.0 101299
03:00+9в2282100 0.1 101119
06:00+9вюв2482100 0.0 1009118
09:00+12вюв5771100 0.0 1007726
12:00+11в3584100 1.6 1005546
15:00+11юв3787100 2.9 1002609
18:00+11ююз579045 4.1 1001500
21:00+9зсз71095100 5.6 1002624
21 апреля, ср
ср2100:00+9з81491100 1.2 1006858
03:00+7зюз5119387 1.3 1009422
06:00+6юз511925 0.0 1012294
09:00+11юз68695 0.0 1013750
12:00+14зюз685276 0.2 10141737
15:00+15зюз6744100 0.7 10142335
18:00+14з475672 0.6 10151408
21:00+10юз367468 1.2 1017114
22 апреля, чт
чт2200:00+8ююз48875 0.1 1018202
03:00+7ююз37925 0.1 1019156
06:00+6юз35945 0.0 1020120
09:00+12юз45725 0.0 1021576
12:00+15юз445220 0.6 10211639
15:00+17юз3442100 1.3 10202236
18:00+14зсз2260100 0.0 102145
21:00+12ю236798 0.2 102240
23 апреля, пт
пт2300:00+11юз357891 0.2 1022143
03:00+10юз368594 0.4 1023165
06:00+9ююз238870 0.6 102377
09:00+13юз33685 0.7 1023498
12:00+16юз444934 0.9 10221620
15:00+16юз4547100 1.4 10211655
18:00+15ююз3657100 0.0 1021258
21:00+13ююз496618 0.0 1021323
24 апреля, сб
сб2400:00+9ююз37795 0.0 1020146
03:00+8ююз358076 0.0 101985
06:00+7ю3680100 0.0 1018126
09:00+11ююз4763100 0.0 1018429
12:00+15ююз6751100 0.0 10171289
15:00+16юз564960 0.3 10151793
18:00+13сз667093 0.7 1016776
21:00+8с4681100 0.8 1018316